Weather History for Mandan, ND

Change the Weather History Date:

Tuesday, May 28, 2013

  Actual Average (KBIS) Record (KBIS)
Temperature  
Mean Temperature 62 °F 59 °F  
Max Temperature 73 °F 72 °F 102 °F (1934)
Min Temperature 51 °F 47 °F 23 °F (1947)
Degree Days  
Heating Degree Days 3 7  
Month to date heating degree days 292  
Since 1 July heating degree days 8447  
Cooling Degree Days 0 1  
Month to date cooling degree days 10  
Year to date cooling degree days 11  
Growing Degree Days 12 (Base 50)    
Moisture  
Dew Point 54 °F    
Average Humidity 79    
Maximum Humidity 100    
Minimum Humidity 44    
Precipitation  
Precipitation 0.00 in 0.08 in 0.97 in (1985)
Month to date precipitation 2.12  
Year to date precipitation 5.19  
Snow  
Snow 0.00 in 0.00 in 0.00 in (2002)
Month to date snowfall 0.4  
Since 1 July snowfall 51.2  
Snow Depth -    
Sea Level Pressure  
Sea Level Pressure 29.67 in    
Wind  
Wind Speed 7 mph (West)    
Max Wind Speed 15 mph    
Max Gust Speed 21 mph    
Visibility 10 miles    
Events      
T = Trace of Precipitation, MM = Missing Value Source: NWS Daily Summary

Daily Weather History Graph

Daily Weather History Graph

Search for Another Location

Airport:

Trip Planner

Search our weather history database for the weather conditions in past years. The results will help you decide how hot, cold, wet, or windy it might be!

Date:

Astronomy

May. 28, 2013 Rise Set
Actual Time 5:55 AM CDT 9:26 PM CDT
Civil Twilight 5:18 AM CDT 10:04 PM CDT
Nautical Twilight 4:28 AM CDT 10:54 PM CDT
Astronomical Twilight 3:22 AM CDT 12:01 AM CDT
Moon 12:01 AM CDT (5/28) 9:52 AM CDT (5/28)
Length of Visible Light 16h 46m
Length of Day
15h 30m
Waning Gibbous, 82% of the Moon is Illuminated
May 28
Waning Gibbous
May 31
Last Quarter
Jun 8
New
Jun 16
First Quarter
Jun 23
Full

Hourly Weather History & Observations

Time (CDT) Temp. Dew Point Humidity Pressure Visibility Wind Dir Wind Speed Gust Speed Precip Events Conditions
12:15 AM 55.4 °F 55.4 °F 100% 29.70 in 10.0 mi SSW 3.5 mph - N/A   Partly Cloudy
12:35 AM 55.4 °F 55.4 °F 100% 29.69 in 10.0 mi Calm Calm - N/A   Clear
12:55 AM 55.4 °F 55.4 °F 100% 29.69 in 10.0 mi South 4.6 mph - N/A   Clear
1:15 AM 55.4 °F 55.4 °F 100% 29.70 in 10.0 mi SSE 5.8 mph - N/A   Clear
1:35 AM 53.6 °F 53.6 °F 100% 29.71 in 10.0 mi SSW 5.8 mph - N/A   Clear
1:55 AM 55.4 °F 55.4 °F 100% 29.69 in 10.0 mi SSW 5.8 mph - N/A   Clear
2:15 AM 55.4 °F 55.4 °F 100% 29.69 in 10.0 mi SW 4.6 mph - N/A   Clear
2:35 AM 53.6 °F 53.6 °F 100% 29.69 in 10.0 mi SW 5.8 mph - N/A   Clear
2:55 AM 53.6 °F 53.6 °F 100% 29.68 in 10.0 mi WSW 6.9 mph - N/A   Clear
3:15 AM 53.6 °F 53.6 °F 100% 29.68 in 10.0 mi SW 5.8 mph - N/A   Clear
3:35 AM 51.8 °F 51.8 °F 100% 29.69 in 10.0 mi WSW 8.1 mph - N/A   Clear
3:55 AM 51.8 °F 51.8 °F 100% 29.68 in 10.0 mi WSW 8.1 mph - N/A   Mostly Cloudy
4:15 AM 53.6 °F 53.6 °F 100% 29.68 in 10.0 mi WSW 10.4 mph - N/A   Overcast
4:35 AM 53.6 °F 53.6 °F 100% 29.67 in 10.0 mi WSW 8.1 mph - N/A   Overcast
4:55 AM 53.6 °F 53.6 °F 100% 29.68 in 10.0 mi WSW 8.1 mph - N/A   Overcast
5:15 AM 53.6 °F 53.6 °F 100% 29.67 in 10.0 mi SW 8.1 mph - N/A   Mostly Cloudy
5:35 AM 53.6 °F 53.6 °F 100% 29.67 in 10.0 mi WSW 8.1 mph - N/A   Mostly Cloudy
5:55 AM 53.6 °F 53.6 °F 100% 29.66 in 10.0 mi SW 10.4 mph - N/A   Scattered Clouds
6:15 AM 53.6 °F 53.6 °F 100% 29.66 in 10.0 mi SW 9.2 mph - N/A   Clear
6:35 AM 53.6 °F 53.6 °F 100% 29.66 in 10.0 mi WSW 5.8 mph - N/A   Clear
6:55 AM 53.6 °F 53.6 °F 100% 29.66 in 10.0 mi SW 9.2 mph - N/A   Clear
7:15 AM 51.8 °F 51.8 °F 100% 29.67 in 10.0 mi WSW 9.2 mph - N/A   Clear
7:35 AM 53.6 °F 53.6 °F 100% 29.66 in 10.0 mi WSW 11.5 mph 16.1 mph N/A   Partly Cloudy
7:55 AM 55.4 °F 55.4 °F 100% 29.66 in 10.0 mi WSW 12.7 mph 20.7 mph N/A   Mostly Cloudy
8:15 AM 55.4 °F 55.4 °F 100% 29.65 in 10.0 mi West 15.0 mph - N/A   Mostly Cloudy
8:35 AM 57.2 °F 57.2 °F 100% 29.66 in 10.0 mi West 13.8 mph 17.3 mph N/A   Scattered Clouds
8:55 AM 57.2 °F 57.2 °F 100% 29.66 in 10.0 mi WSW 10.4 mph - N/A   Mostly Cloudy
9:15 AM 57.2 °F 57.2 °F 100% 29.66 in 10.0 mi West 10.4 mph - N/A   Mostly Cloudy
9:35 AM 59.0 °F 57.2 °F 94% 29.66 in 10.0 mi West 9.2 mph - N/A   Mostly Cloudy
9:55 AM 60.8 °F 59.0 °F 94% 29.67 in 10.0 mi WSW 8.1 mph - N/A   Overcast
10:15 AM 59.0 °F 57.2 °F 94% 29.67 in 10.0 mi West 8.1 mph - N/A   Overcast
10:35 AM 60.8 °F 59.0 °F 94% 29.67 in 10.0 mi West 8.1 mph - N/A   Overcast
10:55 AM 62.6 °F 57.2 °F 82% 29.66 in 10.0 mi West 8.1 mph - N/A   Overcast
11:15 AM 64.4 °F 59.0 °F 83% 29.66 in 10.0 mi WNW 10.4 mph - N/A   Overcast
11:35 AM 64.4 °F 57.2 °F 77% 29.67 in 10.0 mi WNW 8.1 mph - N/A   Mostly Cloudy
11:55 AM 66.2 °F 57.2 °F 73% 29.66 in 10.0 mi WNW 10.4 mph 17.3 mph N/A   Mostly Cloudy
12:15 PM 66.2 °F 57.2 °F 73% 29.67 in 10.0 mi WNW 8.1 mph - N/A   Mostly Cloudy
12:35 PM 68.0 °F 55.4 °F 64% 29.67 in 10.0 mi West 10.4 mph 16.1 mph N/A   Overcast
12:55 PM 66.2 °F 55.4 °F 68% 29.67 in 10.0 mi WNW 10.4 mph - N/A   Overcast
1:15 PM 69.8 °F 55.4 °F 60% 29.67 in 10.0 mi WNW 11.5 mph - N/A   Mostly Cloudy
1:35 PM 69.8 °F 55.4 °F 60% 29.67 in 10.0 mi West 12.7 mph 16.1 mph N/A   Mostly Cloudy
1:55 PM 69.8 °F 55.4 °F 60% 29.67 in 10.0 mi NW 10.4 mph 18.4 mph N/A   Mostly Cloudy
2:15 PM 71.6 °F 53.6 °F 53% 29.66 in 10.0 mi West 13.8 mph 17.3 mph N/A   Scattered Clouds
2:35 PM 71.6 °F 53.6 °F 53% 29.66 in 10.0 mi WNW 13.8 mph 19.6 mph N/A   Partly Cloudy
2:55 PM 71.6 °F 53.6 °F 53% 29.66 in 10.0 mi WNW 15.0 mph 18.4 mph N/A   Scattered Clouds
3:15 PM 69.8 °F 55.4 °F 60% 29.66 in 10.0 mi WNW 9.2 mph - N/A   Mostly Cloudy
3:35 PM 73.4 °F 55.4 °F 53% 29.66 in 10.0 mi NW 9.2 mph - N/A   Scattered Clouds
3:55 PM 73.4 °F 53.6 °F 50% 29.66 in 10.0 mi West 8.1 mph 19.6 mph N/A   Clear
4:15 PM 73.4 °F 53.6 °F 50% 29.67 in 10.0 mi WSW 8.1 mph - N/A   Partly Cloudy
4:35 PM 73.4 °F 53.6 °F 50% 29.66 in 10.0 mi NW 10.4 mph - N/A   Scattered Clouds
4:55 PM 73.4 °F 51.8 °F 47% 29.66 in 10.0 mi WNW 9.2 mph 16.1 mph N/A   Partly Cloudy
5:15 PM 73.4 °F 51.8 °F 47% 29.65 in 10.0 mi NW 11.5 mph - N/A   Partly Cloudy
5:35 PM 73.4 °F 51.8 °F 47% 29.65 in 10.0 mi NW 5.8 mph - N/A   Mostly Cloudy
5:55 PM 73.4 °F 51.8 °F 47% 29.65 in 10.0 mi WSW 10.4 mph - N/A   Scattered Clouds
6:15 PM 73.4 °F 50.0 °F 44% 29.65 in 10.0 mi West 5.8 mph - N/A   Partly Cloudy
6:35 PM 73.4 °F 51.8 °F 47% 29.65 in 10.0 mi West 5.8 mph - N/A   Partly Cloudy
6:55 PM 73.4 °F 51.8 °F 47% 29.65 in 10.0 mi NW 4.6 mph - N/A   Clear
7:15 PM 73.4 °F 50.0 °F 44% 29.65 in 10.0 mi WNW 3.5 mph - N/A   Clear
7:35 PM 71.6 °F 51.8 °F 50% 29.65 in 10.0 mi Calm Calm - N/A   Clear
7:55 PM 73.4 °F 50.0 °F 44% 29.66 in 10.0 mi Calm Calm - N/A   Partly Cloudy